Zurück zum Katalog

COSMOS 2251 DEB

AktivLEO
NORAD 38064·DEBRIS·🇷🇺 Russia

Gestartet Jun 16, 1993 von Plesetsk Cosmodrome

Loading…

Nächste Überflüge (nächste 24 Stunden)

TLE

AktuellSource: Space-Track

Epoche: Sep 14, 2026, 14:06 UTC

1 38064U 93036BRW 26257.58777743  .00001542  00000-0  33812-3 0  9994
2 38064  74.0223 319.6210 0046416   7.4458 352.7385 14.57876353758835

Verfolge COSMOS 2251 DEB in Echtzeit mit AllMySat

Download on the App Store